Powrót do katalogu

STARLINK-30348

AktywnyŁącznośćVLEO
NORAD 57712·PAYLOAD·🇺🇸 United States

Wystrzelony Aug 27, 2023 z Cape Canaveral Space Force Station

Loading…

Następne Przeloty (najbliższe 24 godziny)

TLE

ŚwieżeSource: CelesTrak SupGP

Epoka: Sep 14, 2026, 22:33 UTC

1 57712C 23129Q   26257.94006944 -.00014293  00000+0 -51784-3 0  2572
2 57712  42.9993 129.2142 0001306 270.4427 132.7940 15.27577076    11

Śledź STARLINK-30348 w czasie rzeczywistym z AllMySat

Download on the App Store